Regional Weather Roundup
Issued by NWS

Home | Current Version | Previous Version | Graphics & Text | Print | Product List | Glossary On
Versions: 1 2 3 4 5 6 7 8 9 10 11 12 13 14 15 16 17 18 19 20 21 22 23 24 25 26 27 28 29 30 31 32 33 34 35 36 37 38 39 40 41 42 43 44 45 46 47 48 49 50
392
ASUS45 KSLC 200010
RWRUT

UTAH REGIONAL WEATHER ROUNDUP
NATIONAL WEATHER SERVICE SALT LAKE CITY UT
500 PM MST SUN NOV 19 2017

UTZ001>011-023>025-200100-

NORTHERN UTAH

CITY           SKY/WX    TMP DP  RH WIND       PRES   REMARKS
BRIGHAM CITY   CLEAR     39  24  53 CALM      30.16S
HILL AFB       CLEAR     37  26  65 N6        30.14R WCI  32
LOGAN          CLEAR     39  22  50 CALM      30.14R
OGDEN          CLEAR     36  26  67 NW7       30.14R WCI  30
SALT LAKE CITY MOCLDY    43  30  60 NW9       30.15R
TOOELE VALLEY  CLEAR     36  30  80 CALM      30.16R
WENDOVER       CLOUDY    36  23  59 CALM      30.14
HEBER CITY       N/A     36  21  55 CALM      30.10S
WEST JORDAN    CLEAR     38  30  74 NW14      30.15R WCI  29

$$

UTZ011>015-024>027-200100-

CENTRAL/NORTHEAST UTAH

CITY           SKY/WX    TMP DP  RH WIND       PRES   REMARKS
PROVO AIRPORT  CLEAR     38  29  70 NW5       30.14R WCI  34
MOAB/CANYONLAN CLEAR     42   7  23 NW7       30.18F
DELTA          PTCLDY    41  19  42 W5        30.13S
PRICE          CLEAR     37   7  28 CALM      30.18F
RICHFIELD      CLEAR     43  25  49 CALM      30.14R
ROOSEVELT      CLEAR     37  10  32 CALM      30.17F
VERNAL         CLEAR     38  10  31 N3        30.14F

$$

UTZ013>016-019>022-027-200100-

SOUTHERN UTAH

CITY           SKY/WX    TMP DP  RH WIND       PRES   REMARKS
BRYCE CANYON   CLEAR     38   2  22 S5        30.21R WCI  34
CEDAR CITY     CLEAR     52   2  13 S12       30.10S
MILFORD        CLEAR     47  20  34 SE5       30.10S
ST GEORGE      CLEAR     58   9  14 SW6       30.08F
HANKSVILLE     CLEAR     45   7  21 SW3       30.21F
KANAB          CLEAR     48   5  17 E10       30.18S
BLANDING         N/A     41   6  22 CALM      30.26S

$$

REGIONAL REPORTS     COLORADO/ARIZONA

CITY           SKY/WX    TMP DP  RH WIND       PRES   REMARKS
CRAIG, CO      CLOUDY    30  20  66 CALM      30.13F
GRAND JUNCTION CLEAR     42  16  34 W5        30.19F
RIFLE, CO      CLEAR     35  23  61 SW7       30.19F WCI  29
MONTROSE, CO   CLEAR     39  21  48 NW6       30.20F WCI  35
CORTEZ, CO     CLEAR     39  15  37 S8        30.19S WCI  33
COLORADO CITY    N/A     54   5  14 SE6       30.15S
PAGE, AZ       CLEAR     48  12  23 N3        30.17S
GRAND CANYON   CLEAR     48   4  16 NE7       30.19R
KINGMAN, AZ    CLEAR     62   8  12 NE6       30.06F
FLAGSTAFF, AZ  CLEAR     47   3  16 E6        30.18R

$$

REGIONAL REPORTS    NEVADA/IDAHO/WYOMING

CITY           SKY/WX    TMP DP  RH WIND       PRES   REMARKS
LAS VEGAS, NV  MOCLDY    62   9  12 CALM      30.06S
ELY, NY        MOCLDY    49  -2  12 CALM      30.09F
ELKO, NV       CLOUDY    40  26  57 CALM      30.08F
POCATELLO, ID  CLOUDY    39  26  59 CALM      30.08F
BURLEY, ID     PTCLDY    42  28  57 CALM      30.03F
FORT BRIDGER,    N/A     31  15  50 CALM      30.12S
EVANSTON, WY   CLOUDY    29  21  72 SW9       30.11S WCI  20
ROCK SPRINGS,  CLOUDY    28  15  58 S5        30.10S WCI  23

$$




USA.gov is the U.S. government's official web portal to all federal, state and local government web resources and services.